| time (UTC) | temp F | wind direction | speed MPH | gust MPH | rain 1hr in | rain 24hr in | rain mn in | humidity % | barometer mb |
| 20260508095734 | 40 | 312 | 3.0 | 6.0 | 0.00 | 0.02 | 0.00 | 78 | 1011.9 |
| 20260508095217 | 40 | 308 | 3.0 | 8.0 | 0.00 | 0.02 | 0.00 | 78 | 1012.0 |
| 20260508094719 | 40 | 312 | 3.0 | 8.0 | 0.00 | 0.02 | 0.00 | 78 | 1011.8 |
| 20260508094219 | 40 | 318 | 3.0 | 8.0 | 0.00 | 0.02 | 0.00 | 78 | 1011.8 |
| 20260508093717 | 40 | 310 | 3.0 | 7.0 | 0.00 | 0.02 | 0.00 | 78 | 1011.9 |
| 20260508093219 | 40 | 323 | 2.0 | 6.0 | 0.00 | 0.02 | 0.00 | 77 | 1012.0 |
| 20260508092717 | 40 | 291 | 2.0 | 7.0 | 0.00 | 0.02 | 0.00 | 77 | 1011.9 |
| 20260508092217 | 41 | 358 | 2.0 | 7.0 | 0.00 | 0.02 | 0.00 | 76 | 1011.9 |
| 20260508091717 | 41 | 335 | 1.0 | 6.0 | 0.00 | 0.02 | 0.00 | 76 | 1012.8 |
| 20260508091218 | 41 | 296 | 2.0 | 6.0 | 0.00 | 0.02 | 0.00 | 76 | 1012.6 |
| 20260508090718 | 41 | 309 | 3.0 | 9.0 | 0.00 | 0.02 | 0.00 | 76 | 1012.5 |
| 20260508090218 | 41 | 306 | 3.0 | 9.0 | 0.00 | 0.02 | 0.00 | 76 | 1012.5 |
| 20260508085325 | 41 | 308 | 4.0 | 7.0 | 0.00 | 0.02 | 0.00 | 76 | 1012.2 |
| 20260508084825 | 41 | 321 | 4.0 | 8.0 | 0.00 | 0.02 | 0.00 | 76 | 1012.0 |
| 20260508084325 | 41 | 321 | 4.0 | 8.0 | 0.00 | 0.03 | 0.00 | 76 | 1012.1 |
| 20260508083827 | 41 | 310 | 4.0 | 8.0 | 0.00 | 0.03 | 0.00 | 76 | 1011.8 |
| 20260508083347 | 41 | 320 | 4.0 | 8.0 | 0.00 | 0.03 | 0.00 | 76 | 1011.8 |
| 20260508082612 | 41 | 323 | 4.0 | 9.0 | 0.00 | 0.03 | 0.00 | 77 | 1011.8 |
| 20260508082112 | 42 | 326 | 5.0 | 9.0 | 0.00 | 0.03 | 0.00 | 76 | 1011.7 |
| 20260508081521 | 41 | 307 | 4.0 | 7.0 | 0.00 | 0.03 | 0.00 | 76 | 1011.9 |
| 20260508080937 | 42 | 313 | 3.0 | 7.0 | 0.00 | 0.03 | 0.00 | 77 | 1011.8 |
| 20260508080437 | 42 | 318 | 3.0 | 6.0 | 0.00 | 0.03 | 0.00 | 77 | 1011.6 |
| 20260508075915 | 42 | 312 | 3.0 | 7.0 | 0.00 | 0.03 | 0.00 | 77 | 1011.3 |
| 20260508075415 | 42 | 324 | 3.0 | 10.0 | 0.00 | 0.03 | 0.00 | 78 | 1011.4 |
| 20260508074915 | 42 | 309 | 3.0 | 10.0 | 0.00 | 0.03 | 0.00 | 77 | 1011.2 |
| 20260508074422 | 42 | 321 | 4.0 | 8.0 | 0.00 | 0.03 | 0.00 | 77 | 1011.0 |
| 20260508073915 | 42 | 313 | 4.0 | 8.0 | 0.00 | 0.03 | 0.00 | 78 | 1011.0 |
| 20260508073000 | 42 | 305 | 3.0 | 7.0 | 0.00 | 0.03 | 0.00 | 78 | 1011.0 |
| 20260508072457 | 42 | 312 | 3.0 | 5.0 | 0.00 | 0.03 | 0.00 | 79 | 1011.2 |
| 20260508071540 | 42 | 305 | 3.0 | 6.0 | 0.00 | 0.03 | 0.00 | 79 | 1011.5 |
| 20260508070745 | 42 | 279 | 2.0 | 9.0 | 0.00 | 0.03 | 0.00 | 79 | 1011.5 |
| 20260508070252 | 42 | 298 | 3.0 | 12.0 | 0.00 | 0.03 | 0.00 | 79 | 1011.3 |
| 20260508065749 | 42 | 278 | 2.0 | 12.0 | 0.00 | 0.03 | 0.00 | 80 | 1011.2 |
| 20260508065245 | 42 | 313 | 2.0 | 6.0 | 0.00 | 0.03 | 0.00 | 80 | 1011.3 |
| 20260508064746 | 42 | 294 | 3.0 | 6.0 | 0.00 | 0.03 | 0.00 | 80 | 1011.2 |
| 20260508064245 | 43 | 316 | 2.0 | 11.0 | 0.00 | 0.03 | 0.00 | 80 | 1011.2 |
| 20260508063746 | 43 | 322 | 3.0 | 11.0 | 0.00 | 0.03 | 0.00 | 80 | 1011.1 |
| 20260508063245 | 43 | 327 | 3.0 | 7.0 | 0.00 | 0.03 | 0.00 | 81 | 1011.0 |
| 20260508062745 | 43 | 314 | 4.0 | 7.0 | 0.00 | 0.03 | 0.00 | 81 | 1010.8 |
| 20260508061851 | 43 | 319 | 4.0 | 7.0 | 0.00 | 0.03 | 0.00 | 81 | 1010.9 |
| 20260508061351 | 43 | 315 | 3.0 | 7.0 | 0.00 | 0.03 | 0.00 | 81 | 1010.9 |
| 20260508060851 | 43 | 323 | 4.0 | 7.0 | 0.00 | 0.03 | 0.00 | 81 | 1011.1 |
| 20260508060351 | 43 | 314 | 4.0 | 7.0 | 0.00 | 0.03 | 0.00 | 81 | 1011.1 |
| 20260508055852 | 43 | 326 | 4.0 | 7.0 | 0.00 | 0.03 | 0.00 | 81 | 1011.2 |
| 20260508055353 | 43 | 320 | 4.0 | 8.0 | 0.00 | 0.03 | 0.00 | 81 | 1011.3 |
| 20260508054852 | 43 | 324 | 4.0 | 8.0 | 0.00 | 0.03 | 0.00 | 81 | 1011.3 |
| 20260508054352 | 44 | 316 | 4.0 | 7.0 | 0.00 | 0.03 | 0.00 | 81 | 1011.2 |
| 20260508053851 | 44 | 314 | 4.0 | 9.0 | 0.00 | 0.03 | 0.00 | 81 | 1011.3 |
| 20260508053352 | 44 | 316 | 4.0 | 9.0 | 0.00 | 0.03 | 0.00 | 81 | 1011.0 |
| 20260508052851 | 44 | 309 | 4.0 | 8.0 | 0.00 | 0.03 | 0.00 | 81 | 1011.0 |
| 20260508052351 | 44 | 325 | 4.0 | 8.0 | 0.00 | 0.03 | 0.00 | 81 | 1010.9 |
| 20260508051852 | 44 | 317 | 4.0 | 8.0 | 0.00 | 0.03 | 0.00 | 81 | 1010.6 |
| 20260508050850 | 44 | 323 | 5.0 | 9.0 | 0.00 | 0.03 | 0.00 | 81 | 1010.4 |
| 20260508050351 | 44 | 317 | 5.0 | 9.0 | 0.00 | 0.03 | 0.00 | 81 | 1010.4 |
| 20260508045543 | 45 | 312 | 5.0 | 8.0 | 0.00 | 0.03 | 0.00 | 81 | 1010.4 |
| 20260508045039 | 45 | 317 | 5.0 | 9.0 | 0.00 | 0.03 | 0.00 | 81 | 1010.3 |
| 20260508044539 | 45 | 316 | 5.0 | 9.0 | 0.00 | 0.03 | 0.00 | 81 | 1010.2 |
| 20260508044040 | 45 | 313 | 6.0 | 10.0 | 0.00 | 0.03 | 0.00 | 81 | 1009.9 |
| 20260508043540 | 45 | 319 | 6.0 | 10.0 | 0.00 | 0.04 | 0.00 | 81 | 1009.8 |
| 20260508043039 | 45 | 320 | 6.0 | 10.0 | 0.00 | 0.04 | 0.00 | 81 | 1009.5 |
| 20260508042538 | 45 | 314 | 6.0 | 12.0 | 0.00 | 0.04 | 0.00 | 81 | 1009.4 |
| 20260508042038 | 45 | 314 | 6.0 | 12.0 | 0.00 | 0.04 | 0.00 | 81 | 1009.5 |
| 20260508041539 | 45 | 315 | 6.0 | 11.0 | 0.00 | 0.04 | 0.00 | 81 | 1009.5 |
| 20260508041040 | 45 | 317 | 6.0 | 11.0 | 0.00 | 0.04 | 0.00 | 81 | 1009.5 |
| 20260508040542 | 45 | 315 | 6.0 | 11.0 | 0.00 | 0.04 | 0.00 | 81 | 1009.6 |
| 20260508040039 | 45 | 315 | 6.0 | 10.0 | 0.00 | 0.04 | 0.00 | 81 | 1009.6 |
| 20260508035538 | 45 | 315 | 6.0 | 10.0 | 0.00 | 0.04 | 0.00 | 81 | 1009.6 |
| 20260508034614 | 45 | 318 | 6.0 | 11.0 | 0.00 | 0.04 | 0.04 | 82 | 1009.6 |
| 20260508034120 | 45 | 315 | 6.0 | 10.0 | 0.00 | 0.04 | 0.04 | 82 | 1009.5 |
| 20260508033613 | 45 | 314 | 5.0 | 9.0 | 0.00 | 0.04 | 0.04 | 82 | 1009.7 |
| 20260508033113 | 46 | 319 | 6.0 | 10.0 | 0.00 | 0.04 | 0.04 | 82 | 1009.6 |
| 20260508032613 | 46 | 316 | 6.0 | 10.0 | 0.00 | 0.04 | 0.04 | 82 | 1009.5 |
| 20260508032117 | 46 | 318 | 6.0 | 9.0 | 0.00 | 0.04 | 0.04 | 82 | 1009.7 |
| 20260508031617 | 46 | 319 | 5.0 | 9.0 | 0.00 | 0.04 | 0.04 | 82 | 1010.5 |
| 20260508031113 | 46 | 311 | 5.0 | 9.0 | 0.00 | 0.04 | 0.04 | 82 | 1010.4 |
| 20260508030210 | 46 | 319 | 5.0 | 10.0 | 0.00 | 0.05 | 0.04 | 82 | 1010.4 |
| 20260508025601 | 46 | 320 | 5.0 | 10.0 | 0.00 | 0.06 | 0.04 | 82 | 1010.4 |
| 20260508025100 | 46 | 316 | 5.0 | 10.0 | 0.00 | 0.06 | 0.04 | 82 | 1010.5 |
| 20260508024601 | 46 | 313 | 5.0 | 8.0 | 0.00 | 0.06 | 0.04 | 82 | 1010.4 |
| 20260508024100 | 46 | 310 | 4.0 | 8.0 | 0.00 | 0.06 | 0.04 | 82 | 1010.2 |
| 20260508023600 | 46 | 310 | 5.0 | 8.0 | 0.00 | 0.06 | 0.04 | 82 | 1010.2 |
| 20260508023100 | 46 | 313 | 4.0 | 9.0 | 0.00 | 0.06 | 0.04 | 82 | 1010.2 |
| 20260508022602 | 46 | 309 | 5.0 | 9.0 | 0.00 | 0.06 | 0.04 | 82 | 1010.3 |
| 20260508022100 | 46 | 307 | 4.0 | 8.0 | 0.00 | 0.06 | 0.04 | 82 | 1009.8 |
| 20260508021601 | 46 | 316 | 4.0 | 8.0 | 0.00 | 0.06 | 0.04 | 82 | 1009.9 |
| 20260508021100 | 46 | 310 | 4.0 | 8.0 | 0.00 | 0.06 | 0.04 | 82 | 1009.7 |
| 20260508020600 | 46 | 314 | 4.0 | 8.0 | 0.00 | 0.06 | 0.04 | 82 | 1009.8 |
| 20260508020100 | 46 | 305 | 4.0 | 7.0 | 0.00 | 0.06 | 0.04 | 83 | 1009.7 |
| 20260508015606 | 46 | 309 | 4.0 | 7.0 | 0.00 | 0.06 | 0.04 | 83 | 1009.7 |
| 20260508015100 | 46 | 307 | 3.0 | 9.0 | 0.00 | 0.06 | 0.04 | 83 | 1009.8 |
| 20260508014600 | 46 | 315 | 4.0 | 9.0 | 0.00 | 0.06 | 0.04 | 82 | 1009.9 |
| 20260508014100 | 46 | 313 | 4.0 | 8.0 | 0.00 | 0.06 | 0.04 | 82 | 1009.9 |
| 20260508013602 | 46 | 304 | 4.0 | 8.0 | 0.00 | 0.06 | 0.04 | 82 | 1009.7 |
| 20260508013101 | 46 | 313 | 3.0 | 7.0 | 0.00 | 0.06 | 0.04 | 82 | 1009.6 |
| 20260508012601 | 46 | 311 | 3.0 | 6.0 | 0.00 | 0.06 | 0.04 | 82 | 1009.5 |
| 20260508012101 | 46 | 308 | 2.0 | 8.0 | 0.00 | 0.06 | 0.04 | 82 | 1009.5 |
| 20260508011600 | 46 | 326 | 2.0 | 8.0 | 0.00 | 0.06 | 0.04 | 82 | 1009.2 |
| 20260508011102 | 46 | 254 | 2.0 | 6.0 | 0.00 | 0.06 | 0.04 | 81 | 1009.4 |
| 20260508010600 | 47 | 4 | 2.0 | 6.0 | 0.00 | 0.06 | 0.04 | 81 | 1009.1 |
| 20260508010032 | 47 | 276 | 2.0 | 8.0 | 0.00 | 0.06 | 0.04 | 81 | 1009.1 |
| 20260508005537 | 47 | 271 | 2.0 | 7.0 | 0.00 | 0.06 | 0.04 | 81 | 1009.1 |
| 20260508005032 | 47 | 266 | 2.0 | 5.0 | 0.00 | 0.06 | 0.04 | 81 | 1009.2 |
| 20260508004550 | 47 | 295 | 1.0 | 4.0 | 0.00 | 0.06 | 0.04 | 80 | 1009.3 |
| 20260508003919 | 47 | 279 | 2.0 | 5.0 | 0.00 | 0.06 | 0.04 | 80 | 1009.3 |
| 20260508003419 | 47 | 354 | 1.0 | 4.0 | 0.00 | 0.06 | 0.04 | 79 | 1009.3 |
| 20260508002919 | 48 | 310 | 2.0 | 8.0 | 0.00 | 0.06 | 0.04 | 79 | 1009.4 |
| 20260508002419 | 48 | 62 | 2.0 | 8.0 | 0.00 | 0.06 | 0.04 | 78 | 1009.5 |
| 20260508001919 | 48 | 290 | 2.0 | 8.0 | 0.00 | 0.06 | 0.04 | 78 | 1009.5 |
| 20260508001345 | 48 | 314 | 1.0 | 8.0 | 0.00 | 0.06 | 0.04 | 78 | 1009.5 |
| 20260508000841 | 48 | 317 | 2.0 | 8.0 | 0.00 | 0.06 | 0.04 | 78 | 1009.2 |
| 20260508000421 | 49 | 269 | 3.0 | 6.0 | 0.00 | 0.06 | 0.04 | 78 | 1009.0 |
| 20260508000342 | 49 | 269 | 3.0 | 6.0 | 0.00 | 0.06 | 0.04 | 78 | 1009.0 |
| 20260507235841 | 49 | 310 | 2.0 | 6.0 | 0.00 | 0.06 | 0.04 | 77 | 1009.2 |
| 20260507235341 | 49 | 305 | 3.0 | 6.0 | 0.00 | 0.06 | 0.04 | 77 | 1009.0 |
| 20260507234842 | 49 | 311 | 2.0 | 8.0 | 0.00 | 0.06 | 0.04 | 76 | 1009.1 |
| 20260507234341 | 49 | 316 | 4.0 | 10.0 | 0.00 | 0.06 | 0.04 | 76 | 1009.0 |
| 20260507233841 | 49 | 292 | 4.0 | 10.0 | 0.00 | 0.06 | 0.04 | 76 | 1008.8 |
| 20260507233348 | 50 | 301 | 3.0 | 10.0 | 0.00 | 0.06 | 0.04 | 76 | 1008.7 |
| 20260507232841 | 50 | 317 | 4.0 | 10.0 | 0.00 | 0.06 | 0.04 | 75 | 1008.7 |
| 20260507232341 | 50 | 326 | 3.0 | 8.0 | 0.00 | 0.06 | 0.04 | 75 | 1008.7 |
| 20260507231841 | 50 | 284 | 4.0 | 12.0 | 0.00 | 0.06 | 0.04 | 74 | 1008.6 |
| 20260507231343 | 51 | 328 | 4.0 | 12.0 | 0.00 | 0.06 | 0.04 | 75 | 1008.7 |
| 20260507230841 | 51 | 301 | 3.0 | 9.0 | 0.00 | 0.06 | 0.04 | 76 | 1008.5 |
| 20260507230341 | 51 | 294 | 3.0 | 7.0 | 0.00 | 0.06 | 0.04 | 76 | 1008.4 |
| 20260507225841 | 51 | 316 | 2.0 | 8.0 | 0.00 | 0.06 | 0.04 | 76 | 1008.5 |
| 20260507225341 | 52 | 285 | 2.0 | 8.0 | 0.00 | 0.06 | 0.04 | 78 | 1008.4 |
| 20260507224852 | 52 | 308 | 3.0 | 7.0 | 0.00 | 0.06 | 0.04 | 79 | 1008.3 |
| 20260507224344 | 52 | 23 | 2.0 | 8.0 | 0.00 | 0.06 | 0.04 | 79 | 1008.6 |
| 20260507223841 | 52 | 85 | 2.0 | 11.0 | 0.00 | 0.06 | 0.04 | 79 | 1008.5 |
| 20260507223341 | 52 | 45 | 3.0 | 11.0 | 0.00 | 0.06 | 0.04 | 78 | 1008.3 |
| 20260507222841 | 52 | 303 | 3.0 | 10.0 | 0.00 | 0.06 | 0.04 | 78 | 1008.0 |
| 20260507222345 | 53 | 299 | 3.0 | 10.0 | 0.00 | 0.06 | 0.04 | 77 | 1007.9 |
| 20260507221841 | 53 | 297 | 4.0 | 9.0 | 0.00 | 0.06 | 0.04 | 77 | 1007.8 |
| 20260507221342 | 54 | 294 | 2.0 | 8.0 | 0.00 | 0.06 | 0.04 | 76 | 1007.8 |
| 20260507220841 | 54 | 309 | 2.0 | 8.0 | 0.00 | 0.06 | 0.04 | 76 | 1007.9 |
| 20260507220156 | 54 | 293 | 2.0 | 8.0 | 0.00 | 0.06 | 0.04 | 76 | 1008.0 |
| 20260507215648 | 55 | 229 | 1.0 | 7.0 | 0.00 | 0.06 | 0.04 | 77 | 1008.0 |
| 20260507215148 | 55 | 275 | 1.0 | 7.0 | 0.00 | 0.06 | 0.04 | 75 | 1007.9 |
| 20260507214651 | 56 | 302 | 2.0 | 7.0 | 0.00 | 0.06 | 0.04 | 76 | 1007.8 |
| 20260507214148 | 56 | 310 | 3.0 | 8.0 | 0.00 | 0.06 | 0.04 | 78 | 1007.8 |
| 20260507213648 | 56 | 315 | 2.0 | 8.0 | 0.00 | 0.06 | 0.04 | 77 | 1007.8 |
| 20260507213149 | 56 | 307 | 2.0 | 7.0 | 0.00 | 0.06 | 0.04 | 78 | 1007.8 |
| 20260507212648 | 56 | 301 | 3.0 | 8.0 | 0.00 | 0.06 | 0.04 | 76 | 1007.8 |
| 20260507212148 | 56 | 249 | 2.0 | 10.0 | 0.00 | 0.06 | 0.04 | 77 | 1007.7 |
| 20260507211648 | 56 | 10 | 3.0 | 10.0 | 0.00 | 0.06 | 0.04 | 78 | 1007.7 |
| 20260507211148 | 57 | 331 | 2.0 | 5.0 | 0.00 | 0.06 | 0.04 | 78 | 1007.6 |
| 20260507210537 | 57 | 306 | 2.0 | 8.0 | 0.00 | 0.06 | 0.04 | 78 | 1007.4 |
| 20260507210036 | 57 | 322 | 4.0 | 8.0 | 0.00 | 0.06 | 0.04 | 78 | 1008.2 |
| 20260507205536 | 57 | 297 | 3.0 | 8.0 | 0.00 | 0.06 | 0.04 | 78 | 1008.3 |
| 20260507205036 | 58 | 311 | 2.0 | 8.0 | 0.00 | 0.06 | 0.04 | 78 | 1008.2 |
| 20260507204536 | 58 | 322 | 3.0 | 7.0 | 0.00 | 0.06 | 0.04 | 79 | 1008.2 |
| 20260507203925 | 58 | 292 | 3.0 | 6.0 | 0.00 | 0.06 | 0.04 | 78 | 1008.2 |
| 20260507203426 | 58 | 274 | 2.0 | 8.0 | 0.00 | 0.06 | 0.04 | 79 | 1007.9 |
| 20260507202927 | 59 | 289 | 2.0 | 8.0 | 0.00 | 0.06 | 0.04 | 79 | 1007.8 |
| 20260507202427 | 58 | 331 | 2.0 | 8.0 | 0.00 | 0.06 | 0.04 | 80 | 1007.9 |
| 20260507201849 | 58 | 263 | 1.0 | 7.0 | 0.00 | 0.06 | 0.04 | 82 | 1007.8 |
| 20260507201428 | 58 | 307 | 2.0 | 6.0 | 0.00 | 0.06 | 0.04 | 82 | 1007.8 |
| 20260507200849 | 58 | 305 | 3.0 | 11.0 | 0.00 | 0.06 | 0.04 | 82 | 1007.8 |
| 20260507200349 | 58 | 312 | 3.0 | 11.0 | 0.00 | 0.06 | 0.04 | 83 | 1007.8 |
| 20260507195515 | 57 | 42 | 1.0 | 5.0 | 0.00 | 0.06 | 0.04 | 86 | 1008.1 |
| 20260507195003 | 57 | 98 | 2.0 | 8.0 | 0.00 | 0.06 | 0.04 | 84 | 1008.1 |
| 20260507194457 | 57 | 111 | 1.0 | 8.0 | 0.00 | 0.06 | 0.04 | 85 | 1008.1 |
| 20260507193956 | 57 | 351 | 1.0 | 6.0 | 0.00 | 0.06 | 0.04 | 88 | 1008.0 |
| 20260507193456 | 57 | 320 | 3.0 | 10.0 | 0.00 | 0.06 | 0.04 | 88 | 1008.0 |
| 20260507193002 | 56 | 327 | 4.0 | 10.0 | 0.00 | 0.06 | 0.04 | 88 | 1007.9 |
| 20260507192458 | 56 | 306 | 3.0 | 9.0 | 0.00 | 0.06 | 0.04 | 91 | 1007.1 |
| 20260507191956 | 56 | 301 | 3.0 | 7.0 | 0.00 | 0.06 | 0.04 | 93 | 1007.0 |
| 20260507191432 | 55 | 284 | 3.0 | 7.0 | 0.00 | 0.06 | 0.04 | 94 | 1007.0 |
| 20260507190937 | 54 | 305 | 2.0 | 7.0 | 0.00 | 0.06 | 0.04 | 96 | 1007.1 |
| 20260507190431 | 54 | 313 | 2.0 | 5.0 | 0.00 | 0.06 | 0.04 | 96 | 1007.4 |
| 20260507185933 | 53 | 51 | 1.0 | 7.0 | 0.00 | 0.06 | 0.04 | 96 | 1007.8 |
| 20260507185432 | 53 | 92 | 2.0 | 9.0 | 0.00 | 0.06 | 0.04 | 97 | 1007.8 |
| 20260507184948 | 53 | 22 | 2.0 | 9.0 | 0.00 | 0.06 | 0.04 | 97 | 1007.7 |
| 20260507184432 | 52 | 311 | 3.0 | 9.0 | 0.00 | 0.06 | 0.04 | 97 | 1007.6 |
| 20260507183934 | 51 | 351 | 4.0 | 9.0 | 0.00 | 0.06 | 0.04 | 97 | 1007.4 |
| 20260507183432 | 51 | 351 | 3.0 | 9.0 | 0.00 | 0.06 | 0.04 | 97 | 1007.6 |
| 20260507182942 | 50 | 353 | 4.0 | 9.0 | 0.01 | 0.06 | 0.04 | 97 | 1007.7 |
| 20260507182440 | 50 | 12 | 2.0 | 8.0 | 0.01 | 0.06 | 0.04 | 97 | 1007.8 |
| 20260507181931 | 50 | 347 | 3.0 | 8.0 | 0.01 | 0.06 | 0.04 | 96 | 1007.9 |
| 20260507181431 | 50 | 333 | 3.0 | 6.0 | 0.01 | 0.06 | 0.04 | 96 | 1007.8 |
| 20260507180651 | 49 | 343 | 2.0 | 5.0 | 0.02 | 0.06 | 0.04 | 96 | 1008.1 |
| 20260507180151 | 49 | 292 | 2.0 | 5.0 | 0.02 | 0.06 | 0.04 | 96 | 1008.1 |
| 20260507175651 | 49 | 316 | 3.0 | 5.0 | 0.02 | 0.06 | 0.04 | 96 | 1007.9 |
| 20260507175039 | 49 | 306 | 3.0 | 6.0 | 0.02 | 0.06 | 0.04 | 96 | 1008.0 |
| 20260507174538 | 49 | 327 | 3.0 | 6.0 | 0.02 | 0.06 | 0.04 | 95 | 1007.9 |
| 20260507174038 | 49 | 322 | 3.0 | 7.0 | 0.02 | 0.06 | 0.04 | 95 | 1007.9 |
| 20260507173539 | 49 | 346 | 4.0 | 7.0 | 0.02 | 0.06 | 0.04 | 95 | 1007.9 |
| 20260507173038 | 50 | 319 | 4.0 | 6.0 | 0.01 | 0.05 | 0.03 | 94 | 1008.0 |
| 20260507172542 | 50 | 321 | 3.0 | 6.0 | 0.01 | 0.05 | 0.03 | 94 | 1007.8 |
| 20260507172039 | 50 | 327 | 3.0 | 7.0 | 0.01 | 0.05 | 0.03 | 93 | 1007.9 |
| 20260507171538 | 51 | 330 | 2.0 | 7.0 | 0.01 | 0.05 | 0.03 | 93 | 1007.9 |
| 20260507171041 | 51 | 335 | 3.0 | 7.0 | 0.01 | 0.05 | 0.03 | 93 | 1008.1 |
| 20260507170539 | 52 | 6 | 3.0 | 7.0 | 0.00 | 0.04 | 0.02 | 92 | 1008.0 |
| 20260507170041 | 52 | 320 | 3.0 | 9.0 | 0.00 | 0.04 | 0.02 | 92 | 1008.1 |
| 20260507165538 | 53 | 328 | 3.0 | 9.0 | 0.00 | 0.04 | 0.02 | 92 | 1008.2 |
| 20260507164559 | 53 | 338 | 2.0 | 7.0 | 0.00 | 0.04 | 0.02 | 94 | 1008.9 |
| 20260507164056 | 53 | 320 | 2.0 | 8.0 | 0.00 | 0.04 | 0.02 | 94 | 1008.9 |
| 20260507163556 | 53 | 344 | 3.0 | 8.0 | 0.00 | 0.04 | 0.02 | 95 | 1008.8 |
| 20260507163056 | 52 | 325 | 2.0 | 6.0 | 0.00 | 0.04 | 0.02 | 95 | 1008.9 |
| 20260507162556 | 52 | 346 | 3.0 | 7.0 | 0.00 | 0.04 | 0.02 | 94 | 1008.9 |
| 20260507162056 | 52 | 337 | 2.0 | 7.0 | 0.00 | 0.04 | 0.02 | 94 | 1009.1 |
| 20260507161556 | 52 | 320 | 2.0 | 6.0 | 0.00 | 0.04 | 0.02 | 93 | 1009.3 |
| 20260507161058 | 53 | 321 | 2.0 | 6.0 | 0.00 | 0.04 | 0.02 | 93 | 1009.3 |
| 20260507160556 | 53 | 346 | 2.0 | 6.0 | 0.00 | 0.04 | 0.02 | 93 | 1009.3 |
| 20260507160056 | 53 | 340 | 2.0 | 8.0 | 0.00 | 0.04 | 0.02 | 93 | 1009.3 |
| 20260507155557 | 54 | 321 | 3.0 | 8.0 | 0.00 | 0.04 | 0.02 | 93 | 1009.3 |
| 20260507155105 | 54 | 359 | 2.0 | 7.0 | 0.00 | 0.04 | 0.02 | 94 | 1009.3 |
| 20260507154601 | 54 | 14 | 3.0 | 7.0 | 0.00 | 0.04 | 0.02 | 93 | 1009.2 |
| 20260507154057 | 54 | 359 | 2.0 | 4.0 | 0.00 | 0.04 | 0.02 | 94 | 1009.1 |
| 20260507153558 | 54 | 337 | 2.0 | 5.0 | 0.00 | 0.04 | 0.02 | 94 | 1009.2 |
| 20260507153056 | 55 | 314 | 2.0 | 5.0 | 0.00 | 0.04 | 0.02 | 94 | 1009.3 |
| 20260507152602 | 55 | 336 | 2.0 | 5.0 | 0.00 | 0.04 | 0.02 | 94 | 1009.2 |
| 20260507152056 | 55 | 312 | 2.0 | 5.0 | 0.00 | 0.04 | 0.02 | 94 | 1009.2 |
| 20260507151559 | 55 | 353 | 2.0 | 4.0 | 0.00 | 0.04 | 0.02 | 95 | 1009.2 |
| 20260507150645 | 55 | 339 | 2.0 | 5.0 | 0.00 | 0.04 | 0.02 | 96 | 1009.3 |
| 20260507150154 | 54 | 333 | 2.0 | 5.0 | 0.00 | 0.04 | 0.02 | 95 | 1009.2 |
| 20260507145647 | 54 | 321 | 2.0 | 5.0 | 0.00 | 0.04 | 0.02 | 94 | 1009.3 |
| 20260507145143 | 54 | 318 | 2.0 | 5.0 | 0.00 | 0.04 | 0.02 | 94 | 1009.3 |
| 20260507144649 | 55 | 315 | 2.0 | 5.0 | 0.00 | 0.04 | 0.02 | 94 | 1009.4 |
| 20260507144143 | 55 | 346 | 2.0 | 5.0 | 0.00 | 0.04 | 0.02 | 95 | 1009.4 |
| 20260507143644 | 55 | 327 | 2.0 | 4.0 | 0.00 | 0.04 | 0.02 | 95 | 1009.3 |
| 20260507143151 | 55 | 349 | 2.0 | 6.0 | 0.00 | 0.04 | 0.02 | 95 | 1009.3 |
| 20260507142648 | 55 | 357 | 2.0 | 6.0 | 0.00 | 0.04 | 0.02 | 95 | 1009.3 |
| 20260507142143 | 56 | 9 | 2.0 | 5.0 | 0.00 | 0.04 | 0.02 | 96 | 1009.2 |
| 20260507141443 | 55 | 356 | 2.0 | 5.0 | 0.00 | 0.04 | 0.02 | 96 | 1009.2 |
| 20260507140943 | 55 | 344 | 2.0 | 5.0 | 0.00 | 0.04 | 0.02 | 97 | 1009.3 |
| 20260507140444 | 55 | 317 | 2.0 | 5.0 | 0.00 | 0.04 | 0.02 | 97 | 1009.5 |
| 20260507135943 | 55 | 335 | 2.0 | 5.0 | 0.00 | 0.04 | 0.02 | 97 | 1009.3 |
| 20260507135256 | 55 | 344 | 3.0 | 5.0 | 0.00 | 0.04 | 0.02 | 97 | 1009.3 |
| 20260507134757 | 55 | 355 | 2.0 | 5.0 | 0.00 | 0.04 | 0.02 | 97 | 1009.3 |
| 20260507134256 | 56 | 39 | 2.0 | 5.0 | 0.00 | 0.04 | 0.02 | 97 | 1009.3 |
| 20260507133756 | 56 | 32 | 2.0 | 5.0 | 0.00 | 0.04 | 0.02 | 98 | 1009.3 |
| 20260507133302 | 56 | 33 | 1.0 | 5.0 | 0.00 | 0.04 | 0.02 | 98 | 1009.3 |
| 20260507132306 | 55 | 40 | 2.0 | 5.0 | 0.00 | 0.04 | 0.02 | 98 | 1009.0 |
| 20260507131802 | 55 | 38 | 2.0 | 5.0 | 0.00 | 0.04 | 0.02 | 98 | 1009.3 |
| 20260507131302 | 54 | 21 | 1.0 | 4.0 | 0.00 | 0.04 | 0.02 | 98 | 1009.7 |
| 20260507130804 | 54 | 13 | 1.0 | 5.0 | 0.00 | 0.04 | 0.02 | 98 | 1009.9 |
| 20260507130312 | 53 | 42 | 2.0 | 5.0 | 0.00 | 0.05 | 0.02 | 98 | 1009.9 |
| 20260507125802 | 53 | 43 | 1.0 | 3.0 | 0.00 | 0.05 | 0.02 | 98 | 1009.7 |
| 20260507125306 | 53 | 19 | 1.0 | 7.0 | 0.00 | 0.05 | 0.02 | 98 | 1010.1 |
| 20260507124804 | 53 | 15 | 2.0 | 7.0 | 0.00 | 0.05 | 0.02 | 98 | 1010.2 |
| 20260507124302 | 53 | 47 | 2.0 | 4.0 | 0.00 | 0.05 | 0.02 | 98 | 1010.3 |
| 20260507123803 | 54 | 299 | 2.0 | 5.0 | 0.00 | 0.05 | 0.02 | 98 | 1010.4 |
| 20260507123303 | 54 | 43 | 1.0 | 5.0 | 0.00 | 0.05 | 0.02 | 98 | 1010.3 |
| 20260507122815 | 54 | 44 | 2.0 | 4.0 | 0.00 | 0.05 | 0.02 | 98 | 1010.2 |
| 20260507122306 | 54 | 47 | 2.0 | 4.0 | 0.00 | 0.05 | 0.02 | 98 | 1010.1 |
| 20260507121805 | 54 | 56 | 1.0 | 3.0 | 0.00 | 0.05 | 0.02 | 98 | 1010.3 |
| 20260507121302 | 54 | 56 | 1.0 | 3.0 | 0.00 | 0.05 | 0.02 | 98 | 1010.3 |
| 20260507120802 | 54 | 57 | 1.0 | 3.0 | 0.00 | 0.05 | 0.02 | 98 | 1010.3 |
| 20260507120302 | 54 | 57 | 1.0 | 3.0 | 0.00 | 0.05 | 0.02 | 98 | 1010.4 |
| 20260507115741 | 54 | 72 | 1.0 | 3.0 | 0.00 | 0.05 | 0.02 | 98 | 1010.3 |
| 20260507115006 | 54 | 0 | 0.0 | 3.0 | 0.00 | 0.05 | 0.02 | 98 | 1010.2 |
| 20260507114517 | 55 | 0 | 0.0 | 3.0 | 0.00 | 0.05 | 0.02 | 98 | 1009.8 |
| 20260507114011 | 55 | 0 | 0.0 | 3.0 | 0.00 | 0.05 | 0.02 | 98 | 1009.6 |
| 20260507113506 | 55 | 0 | 0.0 | 3.0 | 0.00 | 0.05 | 0.02 | 98 | 1009.5 |
| 20260507113001 | 55 | 120 | 1.0 | 4.0 | 0.00 | 0.05 | 0.02 | 98 | 1009.5 |
| 20260507112517 | 55 | 0 | 0.0 | 4.0 | 0.00 | 0.05 | 0.02 | 98 | 1009.5 |
| 20260507112004 | 55 | 0 | 0.0 | 3.0 | 0.00 | 0.05 | 0.02 | 98 | 1009.3 |
| 20260507111501 | 55 | 0 | 0.0 | 3.0 | 0.00 | 0.05 | 0.02 | 98 | 1009.6 |
| 20260507111002 | 55 | 20 | 1.0 | 4.0 | 0.00 | 0.05 | 0.02 | 98 | 1009.6 |
| 20260507110501 | 56 | 22 | 1.0 | 6.0 | 0.00 | 0.05 | 0.02 | 98 | 1009.3 |
| 20260507110001 | 56 | 29 | 3.0 | 6.0 | 0.00 | 0.05 | 0.02 | 98 | 1009.1 |
| 20260507105517 | 56 | 10 | 1.0 | 4.0 | 0.00 | 0.05 | 0.02 | 98 | 1009.2 |
| 20260507105001 | 56 | 336 | 1.0 | 3.0 | 0.00 | 0.05 | 0.02 | 98 | 1009.4 |
| 20260507104501 | 56 | 336 | 2.0 | 3.0 | 0.00 | 0.05 | 0.02 | 98 | 1009.4 |
| 20260507104017 | 56 | 17 | 2.0 | 3.0 | 0.00 | 0.05 | 0.02 | 98 | 1009.3 |
| 20260507103501 | 56 | 27 | 1.0 | 3.0 | 0.00 | 0.05 | 0.02 | 98 | 1009.5 |
| 20260507103001 | 56 | 28 | 1.0 | 3.0 | 0.00 | 0.05 | 0.02 | 98 | 1009.5 |
| 20260507102442 | 56 | 0 | 0.0 | 4.0 | 0.00 | 0.05 | 0.02 | 98 | 1009.2 |
| 20260507101942 | 56 | 0 | 0.0 | 4.0 | 0.00 | 0.05 | 0.02 | 98 | 1009.5 |
| 20260507101443 | 56 | 0 | 0.0 | 2.0 | 0.00 | 0.05 | 0.02 | 98 | 1009.7 |
| 20260507100948 | 56 | 251 | 1.0 | 2.0 | 0.00 | 0.05 | 0.02 | 98 | 1009.6 |
| 20260507100442 | 56 | 0 | 0.0 | 2.0 | 0.00 | 0.05 | 0.02 | 98 | 1009.6 |